[[{"header":{"parameterUnit":"m.s-1","parameterCategory":1,"la1":30.2991,"la2":30.254,"lo1":-89.0895,"lo2":-89.0444,"dy":0.0017,"dx":0.0017,"nx":28,"ny":28,"refTime":"2023-09-01T09:00:00:Z","depth":0,"parameterNumber":2,"parameterNumberName":"U-component_of_WINDS"},"data":[0,0,0,0,0,0,0,0,0,0,0,0,0,0,0,0,0,0,0,0,0,0,0,0,0,0,0,0,0,0,0,0,0,0,0,0,0,0,0,0,0,0,0,0,0,0,0,0,0,0,0,0,0,0,0,0,0,0,-2.619,-2.6191,0,-2.6237,-2.6237,-2.6238,-2.619,-2.6188,-2.6186,-2.6185,-2.6228,-2.6231,-2.6234,0,0,0,0,0,0,0,0,0,0,0,0,0,-2.6055,-2.6058,-2.619,-2.6191,-2.6191,-2.6237,-2.6237,-2.6238,-2.619,-2.6188,-2.6186,-2.6184,-2.6227,-2.6231,-2.6234,0,0,0,0,0,0,0,0,0,0,0,0,0,-2.6109,-2.6059,-2.619,-2.6173,-2.6172,-2.6237,-2.6237,-2.6238,-2.6191,-2.6188,-2.6185,-2.6183,-2.6226,-2.623,-2.6235,-2.6317,0,0,-2.6248,-2.625,0,0,0,0,0,0,0,0,-2.6106,-2.6114,-2.6175,-2.6174,-2.6173,-2.6205,-2.6206,-2.6264,-2.6192,-2.6184,-2.6185,-2.6181,-2.6222,-2.6227,-2.6242,-2.6319,-2.6321,-2.6248,-2.6251,-2.6253,-2.6254,0,0,0,0,0,0,0,-2.6102,-2.6112,-2.6208,-2.6176,-2.6175,-2.6162,-2.6166,-2.6217,-2.6218,-2.6184,-2.6181,-2.6187,-2.6221,-2.6238,-2.6242,-2.6321,-2.6248,-2.6252,-2.6255,-2.6256,-2.6467,-2.647,0,0,0,0,0,0,-2.6101,-2.6109,-2.6207,-2.621,-2.6132,-2.6166,-2.6172,-2.6197,-2.6217,-2.6218,-2.6189,-2.6185,-2.6231,-2.6237,-2.6244,-2.634,-2.6253,-2.6257,-2.6259,-2.6464,-2.6468,-2.6471,0,0,0,0,0,0,-2.6098,-2.611,-2.6205,-2.6159,-2.617,-2.6172,-2.6201,-2.62,-2.6216,-2.6221,-2.6221,-2.6206,-2.623,-2.6237,-2.6299,-2.634,-2.6259,-2.6263,-2.646,-2.6465,-2.6469,-2.6533,0,0,0,0,0,0,-2.6095,-2.611,-2.6142,-2.616,-2.6172,-2.6261,-2.6204,-2.6203,-2.6224,-2.6218,-2.6237,-2.6237,-2.6228,-2.6293,-2.6303,-2.6345,-2.6266,-2.6457,-2.6462,-2.6468,-2.6527,-2.654,-2.655,0,0,0,0,0,-2.609,-2.6157,-2.6144,-2.6156,-2.6213,-2.6264,-2.6271,-2.626,-2.6228,-2.6259,-2.6263,-2.6236,-2.6335,-2.6299,-2.6311,-2.6354,-2.6454,-2.6461,-2.6467,-2.6522,-2.6537,-2.655,0,0,0,0,0,0,-2.6143,-2.6159,-2.6144,-2.622,-2.6241,-2.6255,-2.6295,-2.6276,-2.6305,-2.6299,-2.6283,-2.6288,-2.6352,-2.636,-2.632,-2.6434,-2.6389,-2.6398,-2.6427,-2.6441,-2.6452,-2.6447,-2.627,0,0,0,0,0,-2.6163,-2.6205,-2.6217,-2.6282,-2.6293,-2.6293,-2.6314,-2.6305,-2.6325,-2.6333,-2.6341,-2.6361,-2.6396,-2.6419,-2.6452,-2.6529,-2.6531,-2.6565,-2.6576,-2.6585,-2.6593,-2.6632,-2.6647,-2.6493,-2.6493,-2.6493,0,0,-2.6206,-2.622,-2.6247,-2.6293,-2.6308,-2.6349,-2.63,-2.6346,-2.6376,-2.6339,-2.6398,-2.6405,-2.6425,-2.6495,-2.6526,-2.6503,-2.6636,-2.6594,-2.6601,-2.6603,-2.6641,-2.6655,-2.6668,-2.6498,-2.6497,-2.6496,0,0,-2.6303,-2.632,-2.6375,-2.6392,-2.6416,-2.6415,-2.6429,-2.6447,-2.645,-2.6509,-2.6482,-2.6517,-2.6578,-2.6594,-2.661,-2.6715,-2.6691,-2.6726,-2.6783,-2.6822,-2.6834,-2.6845,-2.688,-2.6893,-2.6734,-2.6734,-2.6734,0,-2.6352,-2.6415,-2.6406,-2.6454,-2.6474,-2.6445,-2.65,-2.6516,-2.6549,-2.6563,-2.6538,-2.6614,-2.6626,-2.6698,-2.6724,-2.6738,-2.6751,-2.6722,-2.6834,-2.6844,-2.6854,-2.6887,-2.6901,-2.6738,-2.6738,-2.6737,-2.6737,0,-2.6473,-2.6517,-2.6559,-2.6593,-2.6618,-2.667,-2.6666,-2.6693,-2.6682,-2.6683,-2.6742,-2.6756,-2.6791,-2.6808,-2.6797,-2.6878,-2.6863,-2.6836,-2.6789,-2.6873,-2.6904,-2.6917,-2.6744,-2.6742,-2.6741,-2.674,0,0,-2.6603,-2.6633,-2.6648,-2.6662,-2.6688,-2.672,-2.677,-2.6806,-2.6828,-2.6852,-2.6892,-2.6945,-2.692,-2.6939,-2.6929,-2.6964,-2.7044,-2.6932,-2.6932,-2.695,-2.7132,-2.715,-2.7165,-2.7029,-2.7032,-2.7034,-2.7129,0,-2.67,-2.6787,-2.6781,-2.6862,-2.6902,-2.6876,-2.6919,-2.6938,-2.6941,-2.6974,-2.6977,-2.7014,-2.698,-2.699,-2.7024,-2.7027,-2.7079,-2.702,-2.7064,-2.7065,-2.7057,-2.7182,-2.7201,-2.7291,-2.7142,-2.7144,-2.7145,0,-2.6824,-2.6854,-2.694,-2.6959,-2.6975,-2.7014,-2.7046,-2.7079,-2.7099,-2.7099,-2.712,-2.7105,-2.7153,-2.7108,-2.7173,-2.7133,-2.7151,-2.7155,-2.7159,-2.716,-2.7108,-2.7184,-2.7319,-2.7332,-2.7165,-2.7163,-2.7162,0,-2.6907,-2.6969,-2.7029,-2.7042,-2.7067,-2.7094,-2.7105,-2.7124,-2.7145,-2.7173,-2.7186,-2.7219,-2.7236,-2.7261,-2.7254,-2.7222,-2.732,-2.7274,-2.7319,-2.7319,-2.7338,-2.7337,-2.7476,-2.7355,-2.7355,-2.7354,-2.7354,0,-2.7014,-2.7067,-2.7066,-2.7102,-2.7161,-2.7153,-2.721,-2.7218,-2.7235,-2.727,-2.725,-2.7284,-2.7274,-2.7307,-2.7303,-2.7356,-2.7365,-2.7364,-2.7362,-2.7365,-2.7364,-2.7374,-2.7366,-2.7358,-2.7357,-2.7356,-2.7356,0,-2.7116,-2.7117,-2.718,-2.7199,-2.7204,-2.7246,-2.7261,-2.7295,-2.7297,-2.7343,-2.7353,-2.7356,-2.7394,-2.739,-2.7433,-2.7429,-2.7495,-2.7487,-2.7488,-2.7485,-2.7529,-2.7524,-2.7677,-2.7695,-2.7565,-2.7566,-2.7568,0,-2.7182,-2.7223,-2.7246,-2.727,-2.7283,-2.7321,-2.7344,-2.7337,-2.7361,-2.7388,-2.7418,-2.7455,-2.7483,-2.7545,-2.7549,-2.7581,-2.7572,-2.7623,-2.7576,-2.7577,-2.7569,-2.7566,-2.7569,-2.7631,-2.7633,-2.7634,-2.7635,0,-2.73,-2.7299,-2.7333,-2.7368,-2.7395,-2.7422,-2.7445,-2.7465,-2.7461,-2.7489,-2.7528,-2.7551,-2.7595,-2.763,-2.7661,-2.767,-2.7651,-2.7651,-2.7662,-2.7664,-2.7662,-2.7661,-2.7511,-2.7646,-2.7645,-2.7644,-2.7644,-2.7643,-2.7384,-2.7419,-2.7441,-2.7479,-2.7497,-2.752,-2.7552,-2.7559,-2.7592,-2.7628,-2.7623,-2.7666,-2.7686,-2.7725,-2.7738,-2.7771,-2.7752,-2.7769,-2.7773,-2.7777,-2.7781,-2.766,-2.7777,-2.7777,-2.7776,-2.7776,-2.7776,0,-2.7499,-2.7512,-2.7548,-2.7582,-2.7612,-2.7595,-2.7621,-2.7646,-2.7685,-2.7706,-2.7735,-2.778,-2.7815,-2.7823,-2.7856,-2.7881,-2.7873,-2.7889,-2.7886,-2.7888,-2.7797,-2.7783,-2.7895,-2.7895,-2.7895,-2.7895,-2.7895,-2.7895,-2.7561,-2.7618,-2.762,-2.7685,-2.7698,-2.7742,-2.7757,-2.7778,-2.7794,-2.7846,-2.7875,-2.7881,-2.7897,-2.7931,-2.7961,-2.7963,-2.7975,-2.7994,-2.7992,-2.7906,-2.7894,-2.7883,-2.7869,-2.7998,-2.7998,-2.8079,-2.808,-2.8081]},{"header":{"parameterUnit":"m.s-1","parameterCategory":1,"la1":30.2991,"la2":30.254,"lo1":-89.0895,"lo2":-89.0444,"dy":0.0017,"dx":0.0017,"nx":28,"ny":28,"refTime":"2023-09-01T09:00:00:Z","depth":0,"parameterNumber":3,"parameterNumberName":"V-component_of_WINDS"},"data":[0,0,0,0,0,0,0,0,0,0,0,0,0,0,0,0,0,0,0,0,0,0,0,0,0,0,0,0,0,0,0,0,0,0,0,0,0,0,0,0,0,0,0,0,0,0,0,0,0,0,0,0,0,0,0,0,0,0,-2.0535,-2.0536,0,-2.0654,-2.0655,-2.0656,-2.0714,-2.0714,-2.0714,-2.0714,-2.083,-2.0833,-2.0837,0,0,0,0,0,0,0,0,0,0,0,0,0,-2.0353,-2.0356,-2.0535,-2.0537,-2.0538,-2.0654,-2.0655,-2.0657,-2.0714,-2.0714,-2.0714,-2.0714,-2.0829,-2.0833,-2.0837,0,0,0,0,0,0,0,0,0,0,0,0,0,-2.0448,-2.0357,-2.0535,-2.0581,-2.0586,-2.0653,-2.0655,-2.0657,-2.0714,-2.0714,-2.0714,-2.0714,-2.0828,-2.0833,-2.0837,-2.0866,0,0,-2.0852,-2.0854,0,0,0,0,0,0,0,0,-2.0443,-2.0455,-2.0572,-2.0578,-2.0584,-2.0669,-2.0634,-2.0727,-2.0714,-2.0665,-2.0714,-2.0714,-2.0776,-2.0785,-2.0808,-2.0872,-2.0877,-2.0852,-2.0855,-2.0857,-2.0858,0,0,0,0,0,0,0,-2.0436,-2.045,-2.0582,-2.0574,-2.0581,-2.0594,-2.0607,-2.0652,-2.0719,-2.0669,-2.0674,-2.0687,-2.0779,-2.0803,-2.0811,-2.0879,-2.0852,-2.0856,-2.0859,-2.0861,-2.0973,-2.0973,0,0,0,0,0,0,-2.0423,-2.0444,-2.0578,-2.0585,-2.0512,-2.0597,-2.0612,-2.0642,-2.0719,-2.0731,-2.0687,-2.069,-2.0795,-2.0805,-2.0815,-2.0855,-2.0857,-2.0861,-2.0864,-2.0973,-2.0973,-2.0973,0,0,0,0,0,0,-2.0418,-2.0434,-2.0573,-2.0516,-2.0535,-2.06,-2.0633,-2.0644,-2.0668,-2.0733,-2.0744,-2.0699,-2.0795,-2.0808,-2.0854,-2.0859,-2.0863,-2.0868,-2.0972,-2.0973,-2.0973,-2.0934,0,0,0,0,0,0,-2.0413,-2.0432,-2.0445,-2.0516,-2.0538,-2.0611,-2.0633,-2.0646,-2.0676,-2.068,-2.0747,-2.0758,-2.0796,-2.0846,-2.0858,-2.0866,-2.0871,-2.0972,-2.0973,-2.0973,-2.0935,-2.0932,-2.0931,0,0,0,0,0,-2.0406,-2.0428,-2.0445,-2.0461,-2.0555,-2.0612,-2.0624,-2.0669,-2.0676,-2.0689,-2.0731,-2.0756,-2.0857,-2.085,-2.0864,-2.0873,-2.0972,-2.0972,-2.0973,-2.0936,-2.0933,-2.0931,0,0,0,0,0,0,-2.0354,-2.0438,-2.0458,-2.0504,-2.0551,-2.0621,-2.0639,-2.0665,-2.0709,-2.0711,-2.0763,-2.0778,-2.0818,-2.085,-2.0842,-2.0906,-2.0917,-2.092,-2.0884,-2.0882,-2.088,-2.0871,-2.0875,0,0,0,0,0,-2.0349,-2.0389,-2.0459,-2.0493,-2.0515,-2.0573,-2.0599,-2.063,-2.0679,-2.0699,-2.0744,-2.079,-2.0832,-2.0858,-2.0901,-2.0939,-2.0954,-2.0952,-2.095,-2.0948,-2.095,-2.0973,-2.0973,-2.0974,-2.0974,-2.0974,0,0,-2.0336,-2.0387,-2.0409,-2.0483,-2.0523,-2.0562,-2.0589,-2.0629,-2.0658,-2.0704,-2.0751,-2.0785,-2.0839,-2.0882,-2.0902,-2.0909,-2.0954,-2.0949,-2.0947,-2.095,-2.0974,-2.0974,-2.0973,-2.0975,-2.0975,-2.0975,0,0,-2.0334,-2.0377,-2.041,-2.0449,-2.051,-2.0548,-2.0555,-2.0623,-2.0648,-2.0695,-2.0731,-2.0765,-2.0837,-2.0875,-2.0903,-2.0915,-2.0939,-2.0927,-2.0916,-2.0938,-2.0938,-2.0938,-2.0943,-2.0944,-2.0929,-2.0929,-2.0929,0,-2.0311,-2.0373,-2.0423,-2.0462,-2.0493,-2.0538,-2.0571,-2.0606,-2.0676,-2.0696,-2.0704,-2.0795,-2.0835,-2.0886,-2.0889,-2.0911,-2.0921,-2.092,-2.0934,-2.0935,-2.0936,-2.0941,-2.0942,-2.0927,-2.0927,-2.0927,-2.0927,0,-2.0342,-2.0384,-2.0403,-2.0472,-2.0505,-2.0541,-2.0594,-2.0622,-2.065,-2.0687,-2.0734,-2.0783,-2.0837,-2.0851,-2.0878,-2.0906,-2.0909,-2.0925,-2.0937,-2.0933,-2.0939,-2.0941,-2.0924,-2.0925,-2.0925,-2.0926,0,0,-2.031,-2.0407,-2.0413,-2.0445,-2.0515,-2.0548,-2.0584,-2.0638,-2.0661,-2.0707,-2.0739,-2.0799,-2.0814,-2.0846,-2.0877,-2.0896,-2.0903,-2.091,-2.0912,-2.0907,-2.0938,-2.0926,-2.0927,-2.092,-2.092,-2.0921,-2.0933,0,-2.0318,-2.0389,-2.0435,-2.0486,-2.0526,-2.0569,-2.0601,-2.0647,-2.0682,-2.072,-2.0758,-2.08,-2.0816,-2.0836,-2.0857,-2.0898,-2.091,-2.0898,-2.0949,-2.095,-2.0935,-2.093,-2.0918,-2.0928,-2.0936,-2.0936,-2.0936,0,-2.0337,-2.0385,-2.0441,-2.0507,-2.0525,-2.0554,-2.0607,-2.0642,-2.0694,-2.0719,-2.0755,-2.0787,-2.0826,-2.0835,-2.089,-2.088,-2.0904,-2.0927,-2.0928,-2.0935,-2.0943,-2.0937,-2.0932,-2.0933,-2.094,-2.094,-2.094,0,-2.0309,-2.0387,-2.0431,-2.0457,-2.0534,-2.0553,-2.0586,-2.0639,-2.0668,-2.0714,-2.0733,-2.0782,-2.0809,-2.0845,-2.0889,-2.0891,-2.094,-2.0952,-2.096,-2.0959,-2.0969,-2.0968,-2.0967,-2.0983,-2.0983,-2.0983,-2.0983,0,-2.0313,-2.0346,-2.0419,-2.0446,-2.0484,-2.0535,-2.057,-2.0607,-2.0653,-2.0687,-2.0726,-2.0757,-2.0813,-2.085,-2.0884,-2.0924,-2.0936,-2.0956,-2.0965,-2.0953,-2.095,-2.0969,-2.097,-2.0983,-2.0983,-2.0983,-2.0983,0,-2.0288,-2.0339,-2.039,-2.046,-2.0478,-2.0503,-2.0562,-2.0589,-2.0627,-2.0669,-2.0682,-2.074,-2.0786,-2.0834,-2.0895,-2.0918,-2.0957,-2.0969,-2.094,-2.0945,-2.0951,-2.095,-2.0963,-2.0967,-2.0979,-2.0979,-2.0979,0,-2.0288,-2.0314,-2.0388,-2.0414,-2.0447,-2.0489,-2.052,-2.0571,-2.0601,-2.0662,-2.0682,-2.0731,-2.0773,-2.0843,-2.089,-2.0937,-2.0951,-2.0953,-2.0958,-2.0946,-2.0952,-2.095,-2.0952,-2.095,-2.095,-2.095,-2.0949,0,-2.0282,-2.0306,-2.035,-2.0402,-2.0439,-2.0482,-2.0527,-2.0546,-2.0605,-2.0637,-2.0685,-2.0718,-2.0781,-2.0829,-2.0882,-2.0914,-2.0942,-2.0947,-2.0952,-2.094,-2.0922,-2.0932,-2.0935,-2.0947,-2.0947,-2.0947,-2.0947,-2.0948,-2.0269,-2.0295,-2.0351,-2.0399,-2.0438,-2.0479,-2.0509,-2.0551,-2.0592,-2.0649,-2.0676,-2.0725,-2.0776,-2.085,-2.0882,-2.0919,-2.0927,-2.0933,-2.0935,-2.0936,-2.0933,-2.0916,-2.0929,-2.0929,-2.0929,-2.0929,-2.0929,0,-2.0266,-2.0304,-2.0347,-2.041,-2.0447,-2.0471,-2.0522,-2.0551,-2.0594,-2.064,-2.0681,-2.0736,-2.0783,-2.0834,-2.0883,-2.0903,-2.0917,-2.0915,-2.0914,-2.0921,-2.0923,-2.0914,-2.0903,-2.0903,-2.0903,-2.0903,-2.0903,-2.0903,-2.0268,-2.0313,-2.0344,-2.0408,-2.0446,-2.0495,-2.0522,-2.056,-2.0597,-2.0658,-2.0698,-2.0731,-2.0779,-2.0833,-2.0876,-2.089,-2.0906,-2.09,-2.0917,-2.0919,-2.0921,-2.0923,-2.0915,-2.0903,-2.0903,-2.0912,-2.0913,-2.0913]}]]